Tracking 17938 objects as of 22-February-2017
HD Live streaming from Space Station
objects crossing your sky now

INTELSAT 2-F4

Track INTELSAT 2-F4 now!
INTELSAT 2-F4 is classified as:


NORAD ID: 2969
Int'l Code: 1967-094A
Perigee: 35,812.5 km
Apogee: 35,927.7 km
Inclination: 4.0 °
Period: 1,440.0 minutes
Semi major axis: 42241 km
RCS: 2.5118 m2 (large)
Launch date: September 28, 1967
Source: International Telecommunications Satellite Organization (ITSO)
Launch site: AIR FORCE EASTERN TEST RANGE (AFETR)
Your satellite tracking list
Your tracking list is empty





NASA's NSSDC Master Catalog

Two Line Element Set (TLE):
1 02969U 67094A   17050.24180969 -.00000265  00000-0  00000+0 0  9997
2 02969   4.0483 298.5095 0013639 237.1762 350.3169  1.00183331 82642
Source of the keplerian elements: AFSPC